Location: Oberwangen
(47.4286°N, 8.9679°E)
Time: 09:22:42
(UTC+00:00)

SL-16 R/B - Pass Details

Date: 20 June 2021
Orbit: 985 x 1007 km, 99.5° (Epoch: 04 August)

Event Time Altitude Azimuth Distance (km) Brightness Sun altitude
Exits shadow 23:46:02 - 124° (SE) 3,281 5.0 -19.0°
Reaches altitude 10° 23:47:35 10° 118° (ESE) 2,755 4.6 -19.0°
Maximum altitude 23:52:50 30° 60° (ENE) 1,687 4.1 -18.9°
Drops below altitude 10° 23:58:06 10° 1° (N) 2,759 6.1 -18.8°
Sets 00:00:51 0° 352° (N) 3,709 6.9 -18.7°
